Location: Marineo
(37.9500°N, 13.4170°E)
Time: 11:20:41
(UTC+02:00)

ISS - Pass Details

Date: 25 January 2019
Orbit: 411 x 421 km, 51.6° (Epoch: 18 October)

Event Time Altitude Azimuth Distance (km) Brightness Sun altitude
Rises 18:24:06 0° 263° (W) 2,403 2.1 -12.5°
Reaches altitude 10° 18:26:31 10° 278° (W) 1,541 0.3 -13.0°
Maximum altitude 18:29:20 23° 333° (NNW) 988 -1.7 -13.5°
Enters shadow 18:31:44 12° 22° (NNE) 1,416 -1.4 -14.0°
